Starlink 33745

operational
NORAD ID: 63714 Int'l Des: 2025-087 Owner: SPXS Country: US Constellation: starlink
LEOCIRCULAR

Starlink 33745について

説明を読み込み中...

リアルタイム位置

3D地球を読み込み中...

次回通過

高度履歴

Altitude vs Time

uPlot chart will show altitude changes over time

軌道要素

1 63714U 25087T 25258.45687659 .00051445 00000-0 17361-2 0 9994
2 63714 53.1569 313.2886 0002607 102.3252 257.8040 15.30216058 22374
Epoch: Sep 15, 2025 • Age: 21 hours

現在のステータス

高度 479.4 km
速度 7.63 km/s
衛星直下点 50.79°N, 95.29°W
打ち上げ日 Apr 28, 2025
運用期間 0.3 years
タイプ internet

技術仕様

分類 Payload
質量 575.00 kg
乾燥質量 530.00 kg
総質量 575.00 kg
長さ 0.30 m
直径 4.10 m
スパン 29.00 m
形状 Box + pan
製造者 SPXS
バスタイプ Starlink V2MO
フェーズステータス In Orbit
所有者/国 SPXS/US

大規模コンステレーション

Loading constellations...